Le nostre stazioni meteo in Italia

Pubblicità
Il mio iltempo24.it
East malling, Gran Bretagna (99008): Temperatura & dewpoint: 24.03.2020 10:00:00 - 30.03.2020 10:00:00 (BST)East malling, Gran Bretagna (99008): Temperatura -20cm: 24.03.2020 10:00:00 - 30.03.2020 10:00:00 (BST)East malling, Gran Bretagna (99008): velocità del vento & gusts: 24.03.2020 10:00:00 - 30.03.2020 10:00:00 (BST)East malling, Gran Bretagna (99008): direzione del vento: 24.03.2020 10:00:00 - 30.03.2020 10:00:00 (BST)East malling, Gran Bretagna (99008): reduced air pressure: 24.03.2020 10:00:00 - 30.03.2020 10:00:00 (BST)East malling, Gran Bretagna (99008): ore di luce: 24.03.2020 10:00:00 - 30.03.2020 10:00:00 (BST)East malling, Gran Bretagna (99008): precipitazioni: 24.03.2020 10:00:00 - 30.03.2020 10:00:00 (BST)
Data & Tempo tt [°C] td [°C] tt -20cm [°C] ff [km/h] ff [kn] fx [km/h] fx [kn] dd ppp [hPa] sd [min] rr [mm]
30.03.2020 10:00:00 5,1 -0,7 5,7 15 8 - - N 1035,3 18 0,0
30.03.2020 09:00:00 4,5 0,0 - 13 7 - - N 1035,5 12 0,0
30.03.2020 08:00:00 2,5 -0,1 - 9 5 - - N 1035,8 6 0,0
30.03.2020 07:00:00 1,5 -1,0 - 8 4 - - NNO 1036,0 0 0,0
30.03.2020 06:00:00 2,7 -0,9 - 13 7 - - N 1036,0 0 0,0
30.03.2020 05:00:00 3,0 -1,3 - 13 7 - - N 1036,4 0 0,0
30.03.2020 04:00:00 2,9 -2,1 - 11 6 - - N 1036,8 0 0,0
30.03.2020 03:00:00 2,6 -3,1 - 13 7 - - NNE 1037,4 0 0,0
30.03.2020 02:00:00 2,6 -3,4 - 15 8 - - N 1037,9 0 0,0
30.03.2020 01:00:00 2,6 -3,7 - 15 8 - - NNE 1038,3 - 0,0
30.03.2020 00:00:00 3,1 -3,9 - 18 10 - - NNE 1038,5 0 0,0
29.03.2020 23:00:00 3,2 -4,1 - 15 8 - - NNE 1038,8 0 0,0
29.03.2020 22:00:00 3,4 -4,0 - 21 11 46 25 NNE 1039,0 0 0,0
29.03.2020 21:00:00 3,5 -4,7 - 24 13 50 27 NE 1039,0 0 0,0
29.03.2020 20:00:00 3,9 -4,6 - 28 15 54 29 NE 1038,5 6 0,0
29.03.2020 19:00:00 4,9 -4,7 - 31 17 55 30 NNE 1037,9 24 0,0
29.03.2020 18:00:00 5,5 -3,8 - 28 15 59 32 NE 1037,5 18 0,0
29.03.2020 17:00:00 5,5 -2,1 - 41 22 57 31 NE 1037,4 18 0,0
29.03.2020 16:00:00 6,3 -0,4 - 39 21 55 30 NE 1037,2 30 0,0
29.03.2020 15:00:00 5,4 1,1 - 28 15 72 39 NNE 1037,3 24 1,0
29.03.2020 14:00:00 2,9 0,6 - 34 18 59 32 NNE 1037,5 18 0,6
29.03.2020 13:00:00 4,9 0,7 - 26 14 67 36 ENE 1037,2 12 0,4
29.03.2020 12:00:00 5,4 0,4 - 34 18 59 32 NE 1036,6 12 0,0
29.03.2020 11:00:00 6,1 0,5 - 31 17 55 30 NNE 1036,2 42 0,0
29.03.2020 10:00:00 5,3 -2,7 6,7 35 19 55 30 NNE 1036,2 6 0,0
29.03.2020 09:00:00 4,7 -3,1 - 31 17 48 26 NNE 1035,6 54 0,0
29.03.2020 08:00:00 3,8 -2,7 - 26 14 - - NNE 1035,2 18 0,0
29.03.2020 07:00:00 3,6 -3,1 - 28 15 46 25 NNE 1034,6 0 0,0
29.03.2020 06:00:00 4,1 -3,4 - 26 14 52 28 NNE 1034,4 0 0,0
29.03.2020 05:00:00 4,0 -3,4 - 22 12 - - NNE 1034,3 0 0,0
29.03.2020 04:00:00 3,9 -1,5 - 21 11 - - NNE 1034,1 0 0,0
29.03.2020 03:00:00 4,3 -0,9 - 22 12 - - NNE 1034,1 0 0,0
29.03.2020 02:00:00 4,1 0,0 - 24 13 - - NNE 1034,4 0 0,0
29.03.2020 01:00:00 4,7 0,3 - 26 14 46 25 NNE 1033,8 - 0,0
29.03.2020 00:00:00 4,8 1,0 - 24 13 48 26 NNE 1033,4 0 0,0
28.03.2020 23:00:00 5,2 0,7 - 26 14 50 27 NNE 1032,7 0 0,0
28.03.2020 22:00:00 5,4 0,1 - 24 13 - - NNE 1032,3 0 0,0
28.03.2020 21:00:00 6,1 0,1 - 26 14 52 28 NNE 1031,9 0 0,0
28.03.2020 20:00:00 7,5 -0,1 - 24 13 46 25 NE 1030,9 6 0,0
28.03.2020 19:00:00 8,2 -0,8 - 34 18 54 29 NE 1030,3 42 0,0
28.03.2020 18:00:00 8,4 2,8 - 22 12 48 26 NE 1029,4 6 0,0
28.03.2020 17:00:00 8,4 3,1 - 28 15 48 26 ENE 1029,3 6 0,0
28.03.2020 16:00:00 8,4 2,7 - 34 18 55 30 NE 1028,9 0 0,0
28.03.2020 15:00:00 8,5 2,9 - 34 18 55 30 NE 1028,8 6 0,0
28.03.2020 14:00:00 10,4 4,3 - 29 16 55 30 NE 1028,6 12 0,0
28.03.2020 13:00:00 10,0 1,7 - 31 17 50 27 NE 1028,5 48 0,0
28.03.2020 12:00:00 10,4 1,8 - 31 17 55 30 NE 1028,0 60 0,0
28.03.2020 11:00:00 9,9 3,2 - 28 15 50 27 NE 1027,7 60 0,0
28.03.2020 10:00:00 8,3 2,8 6,7 28 15 - - NNE 1027,0 60 0,0
28.03.2020 09:00:00 6,5 3,0 - 24 13 - - NNE 1026,5 12 0,0
28.03.2020 08:00:00 5,1 2,4 - 21 11 - - NNE 1026,1 0 0,0
28.03.2020 07:00:00 4,4 1,7 - 18 10 - - NNE 1025,4 0 0,0
28.03.2020 06:00:00 4,3 1,7 - 16 9 - - NNE 1024,9 0 0,0
28.03.2020 05:00:00 4,5 2,0 - 13 7 - - NNE 1024,7 0 0,0
28.03.2020 04:00:00 4,3 1,8 - 15 8 - - NNE 1024,5 0 0,0
28.03.2020 03:00:00 4,4 1,7 - 8 4 - - N 1024,8 0 0,0
28.03.2020 02:00:00 5,0 1,5 - 9 5 - - NNO 1024,8 0 0,0
28.03.2020 01:00:00 4,6 0,9 - 8 4 - - NNO 1024,7 - 0,0
28.03.2020 00:00:00 5,3 0,9 - 11 6 - - NNE 1024,6 0 0,0
27.03.2020 23:00:00 6,2 0,2 - 18 10 - - NNE 1024,4 0 0,0
27.03.2020 22:00:00 6,7 -1,1 - 18 10 - - NNE 1024,0 0 0,0
27.03.2020 21:00:00 7,9 -1,6 - 21 11 - - NNE 1023,7 0 0,0
27.03.2020 20:00:00 9,1 -1,5 - 24 13 - - NE 1023,1 6 0,0
27.03.2020 19:00:00 9,2 0,9 - 21 11 - - NE 1022,5 60 0,0
27.03.2020 18:00:00 10,7 0,5 - 22 12 - - NE 1022,0 60 0,0
27.03.2020 17:00:00 11,5 -0,5 - 24 13 46 25 ENE 1022,1 60 0,0
27.03.2020 16:00:00 11,4 -2,3 - 34 18 50 27 ENE 1022,1 60 0,0
27.03.2020 15:00:00 11,4 -2,1 - 35 19 54 29 ENE 1022,7 60 0,0
27.03.2020 14:00:00 11,4 -1,6 - 29 16 48 26 ENE 1023,1 60 0,0
27.03.2020 13:00:00 11,2 0,3 - 26 14 - - ENE 1023,5 60 0,0
27.03.2020 12:00:00 10,3 2,5 - 26 14 - - NE 1023,6 60 0,0
27.03.2020 11:00:00 9,3 3,6 - 22 12 - - NE 1023,7 60 0,0
27.03.2020 10:00:00 7,6 4,5 6,2 16 9 - - NNE 1023,5 60 0,0
27.03.2020 09:00:00 5,1 3,5 - 8 4 - - NNE 1023,4 60 0,2
27.03.2020 08:00:00 2,8 2,2 - 5 3 - - NE 1023,3 18 0,0
27.03.2020 07:00:00 1,9 1,1 - 5 3 - - N 1023,3 0 0,0
27.03.2020 06:00:00 1,7 1,0 - 8 4 - - N 1023,1 0 0,0
27.03.2020 05:00:00 1,9 1,0 - 5 3 - - NNO 1023,2 0 0,0
27.03.2020 04:00:00 2,2 1,0 - 8 4 - - N 1023,1 0 0,0
27.03.2020 03:00:00 2,3 0,7 - 9 5 - - N 1023,3 0 0,0
27.03.2020 02:00:00 2,8 0,5 - 15 8 - - N 1023,4 0 0,0
27.03.2020 01:00:00 2,9 0,4 - 11 6 - - N 1023,5 - 0,0
27.03.2020 00:00:00 3,3 0,7 - 8 4 - - N 1023,6 0 0,0
26.03.2020 23:00:00 3,5 0,2 - 5 3 - - N 1023,5 0 0,0
26.03.2020 22:00:00 4,8 1,2 - 13 7 - - NE 1023,5 0 0,0
26.03.2020 21:00:00 5,1 0,1 - 15 8 - - NE 1023,5 0 0,0
26.03.2020 20:00:00 5,6 -0,4 - 15 8 - - NE 1023,0 12 0,0
26.03.2020 19:00:00 6,5 -0,9 - 15 8 - - ENE 1022,5 54 0,0
26.03.2020 18:00:00 8,0 -4,2 - 24 13 - - ENE 1022,6 60 0,0
26.03.2020 17:00:00 9,3 -2,4 - 18 10 - - NE 1022,4 60 0,0
26.03.2020 16:00:00 9,3 -7,7 - 28 15 - - ENE 1022,7 60 0,0
26.03.2020 15:00:00 9,1 -4,6 - 26 14 - - NE 1022,9 60 0,0
26.03.2020 14:00:00 10,0 1,1 - 24 13 - - NE 1023,2 60 0,0
26.03.2020 13:00:00 9,8 -1,3 - 26 14 - - ENE 1023,5 60 0,0
26.03.2020 12:00:00 9,6 0,5 - 26 14 - - NE 1023,5 60 0,0
26.03.2020 11:00:00 7,7 3,9 - 21 11 - - NE 1023,7 60 0,0
26.03.2020 10:00:00 4,8 2,2 6,4 13 7 - - NNE 1023,6 60 0,0
26.03.2020 09:00:00 3,1 1,5 - 9 5 - - NNO 1023,4 18 0,0
26.03.2020 08:00:00 2,2 1,0 - 8 4 - - ONO 1023,0 12 0,0
26.03.2020 07:00:00 2,3 1,3 - 5 3 - - N 1022,6 0 0,0
26.03.2020 06:00:00 2,0 1,7 - 8 4 - - NE 1022,4 0 0,0
26.03.2020 05:00:00 0,7 0,5 - 5 3 - - NNO 1022,5 0 0,0
26.03.2020 04:00:00 0,7 0,0 - 5 3 - - O 1022,7 0 0,0
26.03.2020 03:00:00 1,3 0,8 - 5 3 - - ONO 1023,2 0 0,0
26.03.2020 02:00:00 1,3 0,3 - 4 2 - - N 1023,5 0 0,0
26.03.2020 01:00:00 1,0 -0,7 - 4 2 - - N 1023,7 - 0,0
26.03.2020 00:00:00 1,9 -0,5 - 4 2 - - NNE 1024,0 0 0,0
25.03.2020 23:00:00 3,2 -0,2 - 9 5 - - NNE 1024,0 0 0,0
25.03.2020 22:00:00 2,9 -0,7 - 8 4 - - NNE 1024,0 0 0,0
25.03.2020 21:00:00 4,1 -1,4 - 11 6 - - NNE 1023,8 0 0,0
25.03.2020 20:00:00 4,7 -2,0 - 8 4 - - NE 1023,7 18 0,0
25.03.2020 19:00:00 6,9 -2,5 - 15 8 - - ENE 1023,5 60 0,0
25.03.2020 18:00:00 8,4 -2,1 - 16 9 - - NE 1023,6 60 0,0
25.03.2020 17:00:00 9,7 -2,4 - 16 9 - - ENE 1023,7 60 0,0
25.03.2020 16:00:00 10,5 -1,5 - 18 10 - - ENE 1024,0 60 0,0
25.03.2020 15:00:00 11,5 -3,1 - 16 9 - - ENE 1024,2 60 0,0
25.03.2020 14:00:00 11,9 -2,8 - 13 7 - - ENE 1024,7 60 0,0
25.03.2020 13:00:00 11,4 -4,8 - 9 5 - - ESE 1025,1 60 0,0
25.03.2020 12:00:00 10,5 -5,3 - 13 7 - - SE 1025,5 60 0,0
25.03.2020 11:00:00 9,6 -3,9 - 9 5 - - ESE 1025,6 60 0,0
25.03.2020 10:00:00 8,2 -3,6 6,2 8 4 - - SSE 1025,8 60 0,0
25.03.2020 09:00:00 3,8 -0,3 - 2 1 - - NO 1026,0 60 0,0
25.03.2020 08:00:00 -0,6 -1,4 - 0 0 - - N 1025,9 60 0,0
25.03.2020 07:00:00 -2,3 -3,3 - 0 0 - - N 1025,8 0 0,0
25.03.2020 06:00:00 -1,6 -2,4 - 2 1 - - O 1025,5 0 0,0
25.03.2020 05:00:00 -2,0 -3,0 - 2 1 - - S 1025,3 0 0,0
25.03.2020 04:00:00 -1,9 -3,1 - 2 1 - - SO 1025,5 0 0,0
25.03.2020 03:00:00 -1,8 -3,1 - 2 1 - - OSO 1025,5 0 0,0
25.03.2020 02:00:00 -1,1 -2,7 - 2 1 - - SSO 1025,7 0 0,0
25.03.2020 01:00:00 -0,7 -2,8 - 2 1 - - SO 1025,7 - 0,0
25.03.2020 00:00:00 -0,3 -3,0 - 0 0 - - N 1025,8 0 0,0
24.03.2020 23:00:00 0,3 -2,5 - 0 0 - - N 1025,9 0 0,0
24.03.2020 22:00:00 1,0 -2,9 - 2 1 - - OSO 1025,9 0 0,0
24.03.2020 21:00:00 2,4 -2,8 - 4 2 - - SE 1025,9 0 0,0
24.03.2020 20:00:00 5,3 -3,8 - 8 4 - - S 1025,8 24 0,0
24.03.2020 19:00:00 9,2 -3,8 - 11 6 - - SSE 1025,5 60 0,0
24.03.2020 18:00:00 11,1 -3,5 - 9 5 - - SSE 1025,2 60 0,0
24.03.2020 17:00:00 11,8 -4,5 - 13 7 - - S 1025,2 60 0,0
24.03.2020 16:00:00 11,6 -3,1 - 13 7 - - SSE 1025,7 60 0,0
24.03.2020 15:00:00 11,9 -1,0 - 13 7 - - SSE 1026,2 60 0,0
24.03.2020 14:00:00 11,9 -0,4 - 13 7 - - SSE 1026,5 60 0,0
24.03.2020 13:00:00 11,4 -0,5 - 13 7 - - SSE 1027,1 60 0,0
24.03.2020 12:00:00 9,5 0,1 - 15 8 - - SE 1027,3 60 0,0
24.03.2020 11:00:00 8,8 -0,5 - 13 7 - - S 1027,8 60 0,0
24.03.2020 10:00:00 - - - - - - - - - - -

tt = Temperatura
td = dewpoint
tt -20cm = Temperatura -20cm
ff = velocità del vento
fx = gusts
dd = direzione del vento
ppp = reduced air pressure
sd = ore di luce
rr = precipitazioni

Stazioni seguenti

WeatherPro
AMSI
MeteoEarth